Regional Weather Roundup
Issued by NWS Northern Indiana

Home | Current Version | Previous Version | Text Only | Print | Product List | Glossary Off
Versions: 1 2 3 4 5 6 7 8 9 10 11 12 13 14 15 16 17 18 19 20 21 22 23 24 25 26 27 28 29 30 31 32 33 34 35 36 37 38 39 40 41 42 43 44 45 46 47 48 49 50

000
ASUS43 KIWX 261900
RWRIWX

KIWX WEATHER ROUNDUP
NATIONAL WEATHER SERVICE NORTHERN INDIANA
200 PM EST THU FEB 26 2015

NOTE: "FAIR" INDICATES FEW OR NO CLOUDS BELOW 12,000 FEET WITH NO
SIGNIFICANT WEATHER AND/OR OBSTRUCTIONS TO VISIBILITY.

* THESE STATIONS ARE NOT UNDER NWS QUALITY CONTROL. THEY ALSO MAY NOT
  REPORT WEATHER SUCH AS PRECIPITATION OR FOG.

INZ001>027-262000-
NORTHERN INDIANA

CITY           SKY/WX    TMP DP  RH WIND       PRES   REMARKS
GARY*          LGT SNOW  19   5  53 NE14G28   30.24S WCI   6
SOUTH BEND     CLOUDY    17   5  59 N10       30.19S WCI   5
ELKHART*       PTSUNNY   18   1  49 N6        30.18S WCI   9
GOSHEN         PTSUNNY   16   6  65 N7        30.16F WCI   6
ANGOLA*        SUNNY     14   0  52 N6        30.14R WCI   5
FORT WAYNE     PTSUNNY   17   6  62 NE9       30.15F WCI   6
PERU/GRISSOM   CLOUDY    18   7  61 NE8       30.15R WCI   8

$$
INZ028>050-262000-
CENTRAL INDIANA

CITY           SKY/WX    TMP DP  RH WIND       PRES   REMARKS
LAFAYETTE      CLOUDY    19   7  59 N8        30.18S WCI   9
KOKOMO*        SUNNY     19   9  63 N14       30.15F WCI   6
MUNCIE*        CLOUDY    16   6  65 NE12      30.13R WCI   3
INDIANAPOLIS   PTSUNNY   20   9  62 N10       30.12S WCI   9

$$
MIZ043>046-050>051-056>058-064>065-071>073-077>080-262000-
SOUTHWEST LOWER MICHIGAN

CITY           SKY/WX    TMP DP  RH WIND       PRES   REMARKS
BATTLE CREEK   MOSUNNY   15   2  56 N9        30.15F WCI   3
BENTON HARBOR  MOSUNNY   13   0  56 VRB7G17   30.22S WCI   3
COLDWATER*     CLOUDY    14   3  61 N8        30.14S WCI   3
HILLSDALE*     PTSUNNY   14   3  61 N7        30.11S WCI   4
HOLLAND        SUNNY     13  -4  46 N7        30.22F WCI   3
GRAND RAPIDS   PTSUNNY   13  -3  49 N7        30.20S WCI   3
KALAMAZOO      MOSUNNY   15   4  61 N9        30.17F WCI   3
STURGIS*       MOSUNNY   16   3  57 NW6       30.14F WCI   7
THREE RIVERS*  FAIR      15   3  59 N5        30.17F WCI   8

$$
OHZ001>008-015>018-024>025-262000-
NORTHWEST OHIO

CITY           SKY/WX    TMP DP  RH WIND       PRES   REMARKS
DEFIANCE       PTSUNNY   15   4  61 NE8       30.16S WCI   4
FINDLAY        PTSUNNY   15   5  64 N17       30.11S WCI  -1
TOLEDO EXPRESS CLOUDY    14   5  67 NW8       30.14F HAZE    WCI   3
TOLEDO METCALF SUNNY     16   5  62 N7        30.16F WCI   6
LIMA           CLOUDY    14   5  67 N14       30.10S WCI  -1

$$
AND FOR LAKE MICHIGAN COASTAL AND OPEN LAKE BUOY OBSERVATIONS

STATION/POSITION TEMP    WIND        PRES    VSBY  WAVE
                 AIR SEA DIR/SP/G                  HT/PER
                 (F)     (DEG/KT/KT) (MB)    (MI)  (FT/S)
CALUMET HARBOR    17      20/ 13/ 16 1022.6S
MICHIGAN CITY     13      10/ 15/ 17   N/A
SAINT JOSEPH      11     350/ 10/ 14 1023.7R

$$
&&


USA.gov is the U.S. government's official web portal to all federal, state and local government web resources and services.